When you browse on this site, cookies collect data to enhance your experience and personalize the content and advertising you see.
Visit our Privacy Policy to learn more. By continuing to use the site, you agree to this use of cookies and data.
  • In Latvia
  • List of Countries
  • For 7 days
  • Water Temperature
  • Weather Map
  • Weather Widgets
  • user-avatar
    Login

    Hourly Weather Ludza

    Today, 22 September, Sunday

    Time Temperature Precipitation Wind Pressure Humidity
    00:00 +8°C° 0 mm 4 mps 743 mmHg 93%
    01:00 +8°C° 0 mm 4 mps 743 mmHg 94%
    02:00 +8°C° 0 mm 4 mps 743 mmHg 94%
    03:00 +7°C° 0.1 mm 4 mps 743 mmHg 94%
    04:00 +7°C° 0.1 mm 4 mps 743 mmHg 94%
    05:00 +7°C° 0.1 mm 4 mps 743 mmHg 93%
    06:00 +7°C° 0 mm 4 mps 743 mmHg 92%
    07:00 +7°C° 0 mm 4 mps 744 mmHg 90%
    08:00 +7°C° 0 mm 4 mps 744 mmHg 89%
    09:00 +7°C° 0.1 mm 4 mps 745 mmHg 82%
    10:00 +8°C° 0.1 mm 4 mps 745 mmHg 76%
    11:00 +8°C° 0.1 mm 4 mps 745 mmHg 69%
    12:00 +8°C° 0 mm 4 mps 746 mmHg 66%
    13:00 +8°C° 0 mm 4 mps 746 mmHg 63%
    14:00 +10°C° 0 mm 4 mps 746 mmHg 60%
    15:00 +8°C° 0.1 mm 4 mps 746 mmHg 62%
    16:00 +9°C° 0.1 mm 3 mps 747 mmHg 65%
    17:00 +8°C° 0.1 mm 3 mps 747 mmHg 67%
    18:00 +7°C° 0 mm 3 mps 748 mmHg 71%
    19:00 +4°C° 0 mm 3 mps 748 mmHg 74%
    20:00 +4°C° 0 mm 2 mps 749 mmHg 78%
    21:00 +3°C° 0 mm 2 mps 749 mmHg 82%
    22:00 +2°C° 0 mm 2 mps 750 mmHg 86%
    23:00 +2°C° 0 mm 2 mps 750 mmHg 89%

    Tomorrow, 23 September, Monday

    Time Temperature Precipitation Wind Pressure Humidity
    00:00 +2°C° 0 mm 2 mps 751 mmHg 91%
    01:00 +1°C° 0 mm 2 mps 751 mmHg 92%
    02:00 +2°C° 0 mm 1 mps 752 mmHg 93%
    03:00 +2°C° 0 mm 1 mps 752 mmHg 94%
    04:00 +1°C° 0 mm 1 mps 752 mmHg 94%
    05:00 +1°C° 0 mm 1 mps 752 mmHg 95%
    06:00 +2°C° 0 mm 1 mps 752 mmHg 90%
    07:00 +3°C° 0 mm 1 mps 753 mmHg 85%
    08:00 +4°C° 0 mm 1 mps 753 mmHg 80%
    09:00 +5°C° 0 mm 2 mps 753 mmHg 73%
    10:00 +7°C° 0 mm 2 mps 753 mmHg 66%
    11:00 +8°C° 0 mm 2 mps 753 mmHg 58%
    12:00 +9°C° 0 mm 2 mps 753 mmHg 56%
    13:00 +9°C° 0 mm 2 mps 753 mmHg 54%
    14:00 +9°C° 0 mm 3 mps 753 mmHg 53%
    15:00 +9°C° 0 mm 2 mps 752 mmHg 56%
    16:00 +8°C° 0 mm 2 mps 752 mmHg 60%
    17:00 +9°C° 0 mm 1 mps 752 mmHg 64%
    18:00 +8°C° 0 mm 1 mps 752 mmHg 67%
    19:00 +6°C° 0 mm 1 mps 752 mmHg 71%
    20:00 +5°C° 0 mm 1 mps 752 mmHg 74%
    21:00 +5°C° 0 mm 1 mps 752 mmHg 76%
    22:00 +4°C° 0 mm 1 mps 752 mmHg 77%
    23:00 +4°C° 0 mm 1 mps 752 mmHg 79%

    Day after tomorrow, 24 September, Tuesday

    Time Temperature Precipitation Wind Pressure Humidity
    00:00 +4°C° 0 mm 1 mps 752 mmHg 80%
    01:00 +4°C° 0 mm 1 mps 752 mmHg 81%
    02:00 +3°C° 0 mm 1 mps 752 mmHg 81%
    03:00 +4°C° 0 mm 1 mps 752 mmHg 81%
    04:00 +4°C° 0 mm 1 mps 752 mmHg 81%
    05:00 +4°C° 0 mm 1 mps 751 mmHg 81%
    06:00 +4°C° 0 mm 1 mps 751 mmHg 78%
    07:00 +5°C° 0 mm 1 mps 751 mmHg 76%
    08:00 +5°C° 0 mm 0 mps 751 mmHg 74%
    09:00 +6°C° 0 mm 0 mps 751 mmHg 68%
    10:00 +8°C° 0 mm 0 mps 751 mmHg 63%
    11:00 +10°C° 0 mm 0 mps 751 mmHg 57%
    12:00 +10°C° 0 mm 0 mps 751 mmHg 55%
    13:00 +10°C° 0 mm 0 mps 751 mmHg 53%
    14:00 +10°C° 0 mm 0 mps 750 mmHg 52%
    15:00 +10°C° 0 mm 0 mps 750 mmHg 55%
    16:00 +9°C° 0 mm 0 mps 750 mmHg 59%
    17:00 +9°C° 0 mm 0 mps 750 mmHg 63%
    18:00 +7°C° 0 mm 0 mps 749 mmHg 66%
    19:00 +7°C° 0 mm 1 mps 749 mmHg 70%
    20:00 +5°C° 0 mm 1 mps 749 mmHg 74%
    21:00 +5°C° 0 mm 1 mps 749 mmHg 75%
    22:00 +4°C° 0 mm 1 mps 749 mmHg 76%
    23:00 +4°C° 0 mm 1 mps 749 mmHg 78%

    25 September, Wednesday

    Time Temperature Precipitation Wind Pressure Humidity
    00:00 +4°C° 0 mm 1 mps 749 mmHg 78%
    01:00 +4°C° 0 mm 1 mps 749 mmHg 78%
    02:00 +4°C° 0 mm 1 mps 749 mmHg 78%
    03:00 +4°C° 0 mm 1 mps 749 mmHg 78%
    04:00 +4°C° 0 mm 1 mps 749 mmHg 78%
    05:00 +4°C° 0 mm 1 mps 748 mmHg 77%
    06:00 +4°C° 0 mm 2 mps 748 mmHg 75%
    07:00 +5°C° 0 mm 2 mps 748 mmHg 73%
    08:00 +6°C° 0 mm 2 mps 748 mmHg 70%
    09:00 +7°C° 0 mm 2 mps 748 mmHg 68%
    10:00 +8°C° 0 mm 2 mps 748 mmHg 66%
    11:00 +9°C° 0 mm 2 mps 748 mmHg 63%
    12:00 +8°C° 0.1 mm 2 mps 748 mmHg 69%
    13:00 +8°C° 0.1 mm 3 mps 748 mmHg 75%
    14:00 +7°C° 0.1 mm 3 mps 747 mmHg 82%
    15:00 +7°C° 0.1 mm 3 mps 747 mmHg 82%
    16:00 +7°C° 0.1 mm 2 mps 747 mmHg 83%
    17:00 +7°C° 0.1 mm 2 mps 747 mmHg 84%
    18:00 +5°C° 0.3 mm 3 mps 747 mmHg 87%
    19:00 +5°C° 0.3 mm 3 mps 747 mmHg 90%
    20:00 +5°C° 0.3 mm 3 mps 747 mmHg 92%
    21:00 +5°C° 0.2 mm 3 mps 747 mmHg 93%
    22:00 +5°C° 0.2 mm 3 mps 747 mmHg 93%
    23:00 +5°C° 0.2 mm 3 mps 747 mmHg 94%

    26 September, Thursday

    Time Temperature Precipitation Wind Pressure Humidity
    00:00 +5°C° 0.2 mm 3 mps 747 mmHg 94%
    01:00 +5°C° 0.2 mm 3 mps 747 mmHg 94%
    02:00 +5°C° 0.2 mm 4 mps 747 mmHg 94%
    03:00 +4°C° 0.1 mm 3 mps 746 mmHg 94%
    04:00 +4°C° 0.1 mm 3 mps 746 mmHg 93%
    05:00 +4°C° 0.1 mm 3 mps 746 mmHg 93%
    06:00 +4°C° 0.2 mm 3 mps 746 mmHg 93%
    07:00 +4°C° 0.2 mm 3 mps 746 mmHg 93%
    08:00 +4°C° 0.2 mm 4 mps 746 mmHg 93%
    09:00 +4°C° 0.5 mm 4 mps 746 mmHg 93%
    10:00 +5°C° 0.5 mm 4 mps 746 mmHg 93%
    11:00 +5°C° 0.5 mm 4 mps 746 mmHg 93%
    12:00 +5°C° 0.6 mm 4 mps 746 mmHg 94%
    13:00 +5°C° 0.6 mm 3 mps 745 mmHg 95%
    14:00 +5°C° 0.6 mm 3 mps 745 mmHg 95%
    15:00 +5°C° 0.4 mm 3 mps 745 mmHg 96%
    16:00 +5°C° 0.4 mm 3 mps 745 mmHg 96%
    17:00 +5°C° 0.4 mm 3 mps 745 mmHg 96%
    18:00 +5°C° 0.2 mm 3 mps 745 mmHg 96%
    19:00 +5°C° 0.2 mm 3 mps 745 mmHg 96%
    20:00 +5°C° 0.2 mm 3 mps 745 mmHg 96%
    21:00 +5°C° 0.1 mm 3 mps 745 mmHg 96%
    22:00 +5°C° 0.1 mm 3 mps 745 mmHg 96%
    23:00 +5°C° 0.1 mm 3 mps 745 mmHg 96%

    27 September, Friday

    Time Temperature Precipitation Wind Pressure Humidity
    00:00 +5°C° 0.1 mm 3 mps 745 mmHg 96%
    01:00 +5°C° 0.1 mm 3 mps 746 mmHg 95%
    02:00 +5°C° 0.1 mm 3 mps 746 mmHg 95%
    03:00 +4°C° 0.1 mm 3 mps 746 mmHg 95%
    04:00 +4°C° 0.1 mm 3 mps 746 mmHg 94%
    05:00 +4°C° 0.1 mm 3 mps 746 mmHg 94%
    06:00 +3°C° 0 mm 3 mps 747 mmHg 92%
    07:00 +3°C° 0 mm 3 mps 747 mmHg 91%
    08:00 +3°C° 0 mm 3 mps 747 mmHg 89%
    09:00 +5°C° 0 mm 3 mps 747 mmHg 83%
    10:00 +7°C° 0 mm 3 mps 748 mmHg 77%
    11:00 +9°C° 0 mm 3 mps 748 mmHg 71%
    12:00 +9°C° 0 mm 3 mps 748 mmHg 66%
    13:00 +10°C° 0 mm 3 mps 748 mmHg 62%
    14:00 +11°C° 0 mm 3 mps 748 mmHg 57%
    15:00 +10°C° 0 mm 2 mps 748 mmHg 62%
    16:00 +10°C° 0 mm 2 mps 748 mmHg 67%
    17:00 +10°C° 0 mm 1 mps 749 mmHg 71%
    18:00 +8°C° 0 mm 1 mps 749 mmHg 76%
    19:00 +7°C° 0 mm 1 mps 749 mmHg 81%
    20:00 +6°C° 0 mm 1 mps 750 mmHg 85%
    21:00 +5°C° 0 mm 1 mps 750 mmHg 87%
    22:00 +5°C° 0 mm 1 mps 750 mmHg 89%
    23:00 +4°C° 0 mm 1 mps 750 mmHg 91%
    Show more